{"data":{"norad_id":65262,"epoch":"2026-09-21T21:51:13.958208Z","epoch_age_seconds":40307,"freshness":"FRESH","line1":"1 65262U 25180D   26264.91057822  .00002864  00000+0  15207-3 0  9998","line2":"2 65262  97.5378  31.3062 0013565 351.5039   8.5961 15.16070437 60316","mean_motion":15.16070437,"eccentricity":0.0013565,"inclination_deg":97.5378,"raan_deg":31.3062,"arg_perigee_deg":351.5039,"mean_anomaly_deg":8.5961,"bstar":0.00015207,"rev_number":6031,"period_min":94.982394277767,"perigee_km":508.37647258758,"apogee_km":527.08496170419,"semimajor_km":6895.8677171459,"source":"CELESTRAK","updated_at":"2026-09-22T09:00:30.245063Z"}}